WXM80 ListenWXM80 Stop

You find our weather info also at:

UK Metoffice

WeatherCloud

Weather Underground

Northeastern Weather Network

AWEKAS

Citizen Weather Observer Program (CWOP)

HAMweather, WeatherForYou, PWS Weather


Weather Underground History page Text

Daily Summary for December 22, 2017 Units:  English    Metric   Both
« Previous Day
Next Day »
Daily Weekly Monthly Yearly Custom
  High: Low: Average:
Temperature: TemperatureF °F 32.8 °F 38.2 °F
Dew Point: DewpointF °F 21.0 °F 30.6 °F
Humidity: Humidity % 58 % 75 %
Wind Speed: WindSpeedMPH mph 0.0 mph 2.4 mph
Wind Gust: WindSpeedGustMPH mph - -
Wind:- - East
Pressure: PressureIn in 30.12 in -
Precipitation: 0.00 in    
Historical Graphs
 
 
Tabular Data for December 22, 2017
Time Temperature Dew Point Pressure Wind Wind Speed Wind Gust Humidity Rainfall Rate (Hourly)
TemperatureF °F DewpointF °F PressureIn in Calm     Humidity % HourlyPrecipIn in
00:01 33.7 °F 23.9 °F 30.28 in ESE 2.0 mph 2.3 mph 67 % 0.00 in
00:03 33.7 °F 23.9 °F 30.27 in ESE 1.5 mph 2.3 mph 67 % 0.00 in
00:10 33.5 °F 23.7 °F 30.28 in Calm     67 % 0.00 in
00:11 33.5 °F 23.7 °F 30.28 in Calm     67 % 0.00 in
00:16 33.4 °F 23.6 °F 30.28 in ESE 0.3 mph 1.2 mph 67 % 0.00 in
00:20 33.4 °F 23.6 °F 30.28 in Calm     67 % 0.00 in
00:23 33.3 °F 23.5 °F 30.28 in ESE 0.1 mph   67 % 0.00 in
00:28 33.3 °F 23.5 °F 30.28 in ESE 0.8 mph 2.3 mph 67 % 0.00 in
00:33 33.2 °F 23.4 °F 30.28 in Calm     67 % 0.00 in
00:36 33.2 °F 23.8 °F 30.28 in ESE 0.3 mph 1.2 mph 68 % 0.00 in
00:37 33.2 °F 23.8 °F 30.27 in Calm   1.2 mph 68 % 0.00 in
00:42 33.2 °F 23.8 °F 30.28 in ESE 0.1 mph 1.2 mph 68 % 0.00 in
00:43 33.1 °F 23.7 °F 30.27 in Calm   1.2 mph 68 % 0.00 in
00:47 33.1 °F 23.7 °F 30.27 in SE 1.1 mph 3.5 mph 68 % 0.00 in
00:51 33.1 °F 23.3 °F 30.28 in SE 1.4 mph 3.5 mph 67 % 0.00 in
00:56 33.2 °F 23.1 °F 30.28 in ESE 1.3 mph 3.5 mph 66 % 0.00 in
01:01 33.2 °F 23.1 °F 30.28 in ESE 0.6 mph 2.3 mph 66 % 0.00 in
01:02 33.2 °F 22.7 °F 30.28 in ESE 0.8 mph 2.3 mph 65 % 0.00 in
01:08 33.3 °F 23.2 °F 30.28 in ESE 1.0 mph 3.5 mph 66 % 0.00 in
01:13 33.3 °F 23.2 °F 30.28 in ESE 0.5 mph 3.0 mph 66 % 0.00 in
01:14 33.3 °F 23.2 °F 30.28 in ESE 1.0 mph 3.5 mph 66 % 0.00 in
01:15 33.3 °F 23.2 °F 30.28 in Calm   3.5 mph 66 % 0.00 in
01:20 33.4 °F 23.3 °F 30.29 in ESE 0.3 mph 1.2 mph 66 % 0.00 in
01:22 33.4 °F 23.3 °F 30.29 in Calm     66 % 0.00 in
01:27 33.4 °F 22.9 °F 30.29 in ESE 0.2 mph 2.3 mph 65 % 0.00 in
01:28 33.4 °F 22.9 °F 30.29 in ESE 0.7 mph 2.3 mph 65 % 0.00 in
01:33 33.4 °F 22.9 °F 30.29 in ESE 1.6 mph 3.5 mph 65 % 0.00 in
01:34 33.4 °F 22.9 °F 30.29 in ESE 0.7 mph 2.3 mph 65 % 0.00 in
01:39 33.4 °F 22.5 °F 30.29 in SE 1.5 mph 3.5 mph 64 % 0.00 in
01:41 33.4 °F 22.5 °F 30.29 in SE 1.0 mph 1.2 mph 64 % 0.00 in
01:42 33.4 °F 22.5 °F 30.29 in SE 1.1 mph 2.3 mph 64 % 0.00 in
01:47 33.3 °F 22.4 °F 30.29 in Calm   2.3 mph 64 % 0.00 in
01:48 33.3 °F 22.4 °F 30.29 in Calm     64 % 0.00 in
01:55 33.2 °F 22.3 °F 30.30 in SE 0.1 mph 1.0 mph 64 % 0.00 in
02:00 33.2 °F 22.3 °F 30.30 in Calm   1.2 mph 64 % 0.00 in
02:01 33.2 °F 22.3 °F 30.30 in SE 1.0 mph 2.3 mph 64 % 0.00 in
02:10 33.1 °F 21.9 °F 30.30 in Calm   1.2 mph 63 % 0.00 in
02:15 33.0 °F 21.8 °F 30.29 in Calm     63 % 0.00 in
02:17 33.0 °F 21.8 °F 30.30 in SE 0.3 mph 2.3 mph 63 % 0.00 in
02:22 32.9 °F 21.7 °F 30.30 in SE 1.4 mph 2.3 mph 63 % 0.00 in
02:24 32.9 °F 21.7 °F 30.30 in SE 1.1 mph 3.5 mph 63 % 0.00 in
02:26 32.9 °F 21.7 °F 30.30 in SE 0.5 mph 2.3 mph 63 % 0.00 in
02:31 32.8 °F 21.6 °F 30.30 in SE 1.0 mph 3.5 mph 63 % 0.00 in
02:36 32.8 °F 21.6 °F 30.30 in SE 0.9 mph 2.3 mph 63 % 0.00 in
02:37 32.8 °F 21.6 °F 30.30 in SE 0.9 mph 2.3 mph 63 % 0.00 in
02:42 32.8 °F 21.6 °F 30.29 in SE 1.4 mph 3.5 mph 63 % 0.00 in
02:46 32.8 °F 21.6 °F 30.29 in SE 1.4 mph 3.5 mph 63 % 0.00 in
02:51 32.8 °F 21.6 °F 30.30 in SE 0.6 mph 2.3 mph 63 % 0.00 in
02:52 32.8 °F 21.6 °F 30.30 in Calm   1.2 mph 63 % 0.00 in
02:56 32.8 °F 21.6 °F 30.30 in Calm     63 % 0.00 in
03:00 32.8 °F 21.2 °F 30.30 in Calm     62 % 0.00 in
03:06 32.8 °F 21.2 °F 30.30 in Calm     62 % 0.00 in
03:11 32.8 °F 21.6 °F 30.29 in SE 0.3 mph 1.2 mph 63 % 0.00 in
03:13 32.8 °F 21.6 °F 30.30 in SE 0.7 mph 1.2 mph 63 % 0.00 in
03:18 32.8 °F 21.6 °F 30.30 in Calm   1.2 mph 63 % 0.00 in
03:20 32.8 °F 21.6 °F 30.30 in Calm     63 % 0.00 in
03:25 32.8 °F 21.6 °F 30.30 in SE 0.2 mph 1.2 mph 63 % 0.00 in
03:32 32.8 °F 22.0 °F 30.30 in Calm     64 % 0.00 in
03:37 32.8 °F 21.6 °F 30.30 in Calm     63 % 0.00 in
03:46 32.8 °F 21.2 °F 30.30 in Calm     62 % 0.00 in
03:51 32.8 °F 21.2 °F 30.30 in Calm     62 % 0.00 in
03:57 32.8 °F 21.2 °F 30.30 in SE 0.3 mph 2.0 mph 62 % 0.00 in
03:58 32.8 °F 21.2 °F 30.30 in SE 0.3 mph 2.3 mph 62 % 0.00 in
04:05 32.8 °F 21.2 °F 30.30 in SE 2.2 mph 3.0 mph 62 % 0.00 in
04:10 32.9 °F 21.3 °F 30.30 in SE 0.2 mph 2.3 mph 62 % 0.00 in
04:15 32.9 °F 21.3 °F 30.29 in Calm   2.3 mph 62 % 0.00 in
04:17 33.0 °F 21.4 °F 30.29 in ESE 0.6 mph 2.3 mph 62 % 0.00 in
04:25 33.1 °F 21.1 °F 30.29 in ESE 1.2 mph 2.3 mph 61 % 0.00 in
04:26 33.1 °F 21.1 °F 30.29 in ESE 1.0 mph 2.3 mph 61 % 0.00 in
04:32 33.2 °F 21.2 °F 30.30 in ESE 0.2 mph 2.3 mph 61 % 0.00 in
04:37 33.3 °F 21.3 °F 30.30 in Calm     61 % 0.00 in
04:39 33.3 °F 21.3 °F 30.30 in ESE 0.1 mph 1.2 mph 61 % 0.00 in
04:44 33.3 °F 21.7 °F 30.30 in Calm     62 % 0.00 in
04:45 33.3 °F 21.7 °F 30.30 in ESE 0.5 mph 1.2 mph 62 % 0.00 in
04:50 33.4 °F 21.8 °F 30.30 in Calm   1.2 mph 62 % 0.00 in
04:51 33.4 °F 21.7 °F 30.30 in Calm   1.0 mph 62 % 0.00 in
05:01 33.5 °F 21.5 °F 30.30 in Calm     61 % 0.00 in
05:03 33.5 °F 21.9 °F 30.30 in ESE 0.1 mph 1.0 mph 62 % 0.00 in
05:06 33.5 °F 21.5 °F 30.30 in Calm     61 % 0.00 in
05:11 33.6 °F 21.6 °F 30.29 in ESE 0.5 mph 2.3 mph 61 % 0.00 in
05:12 33.6 °F 22.0 °F 30.29 in ESE 0.4 mph 2.3 mph 62 % 0.00 in
05:17 33.7 °F 22.1 °F 30.30 in Calm     62 % 0.00 in
05:20 33.7 °F 22.1 °F 30.29 in ESE 0.7 mph 2.3 mph 62 % 0.00 in
05:25 33.8 °F 22.1 °F 30.29 in ESE 1.7 mph 3.5 mph 62 % 0.00 in
05:30 33.9 °F 22.6 °F 30.29 in ESE 0.5 mph 2.3 mph 63 % 0.00 in
05:32 33.9 °F 22.6 °F 30.29 in East 2.1 mph 4.6 mph 63 % 0.00 in
05:37 34.1 °F 22.8 °F 30.29 in East 1.7 mph 3.5 mph 63 % 0.00 in
05:38 34.1 °F 22.8 °F 30.29 in East 1.2 mph 3.5 mph 63 % 0.00 in
05:43 34.2 °F 22.5 °F 30.29 in SE 2.0 mph 3.5 mph 62 % 0.00 in
05:46 34.2 °F 22.5 °F 30.29 in East 1.0 mph 3.5 mph 62 % 0.00 in
05:51 34.3 °F 22.2 °F 30.29 in East 1.2 mph 3.5 mph 61 % 0.00 in
05:52 34.3 °F 22.2 °F 30.29 in East 1.2 mph 3.5 mph 61 % 0.00 in
05:58 34.3 °F 21.8 °F 30.29 in East 2.6 mph 4.6 mph 60 % 0.00 in
06:00 34.3 °F 21.8 °F 30.29 in East 2.2 mph 4.6 mph 60 % 0.00 in
06:05 34.3 °F 21.8 °F 30.30 in East 2.8 mph 4.6 mph 60 % 0.00 in
06:06 34.3 °F 21.4 °F 30.30 in East 1.7 mph 4.6 mph 59 % 0.00 in
06:08 34.3 °F 21.4 °F 30.30 in East 2.3 mph 3.5 mph 59 % 0.00 in
06:12 34.3 °F 21.8 °F 30.30 in ESE 1.3 mph 3.5 mph 60 % 0.00 in
06:15 34.3 °F 21.8 °F 30.30 in ESE 1.1 mph 2.3 mph 60 % 0.00 in
06:23 34.3 °F 21.0 °F 30.30 in ESE 1.8 mph 3.5 mph 58 % 0.00 in
06:28 34.3 °F 21.0 °F 30.31 in East 1.3 mph 5.0 mph 58 % 0.00 in
06:34 34.4 °F 21.5 °F 30.30 in East 2.1 mph 4.6 mph 59 % 0.00 in
06:36 34.4 °F 21.5 °F 30.30 in East 1.1 mph 3.5 mph 59 % 0.00 in
06:41 34.5 °F 21.2 °F 30.30 in East 3.6 mph 6.0 mph 58 % 0.00 in
06:42 34.5 °F 21.6 °F 30.30 in East 3.4 mph 5.0 mph 59 % 0.00 in
06:47 34.6 °F 21.7 °F 30.30 in East 2.0 mph 4.6 mph 59 % 0.00 in
06:51 34.7 °F 21.8 °F 30.30 in East 3.1 mph 7.0 mph 59 % 0.00 in
06:56 34.8 °F 21.5 °F 30.30 in East 3.7 mph 5.8 mph 58 % 0.00 in
06:58 34.9 °F 21.6 °F 30.30 in East 4.6 mph 5.8 mph 58 % 0.00 in
07:03 35.0 °F 22.1 °F 30.30 in East 4.3 mph 7.0 mph 59 % 0.00 in
07:04 35.0 °F 22.1 °F 30.30 in East 4.2 mph 6.9 mph 59 % 0.00 in
07:09 35.0 °F 22.5 °F 30.30 in East 1.6 mph 3.5 mph 60 % 0.00 in
07:11 35.0 °F 22.5 °F 30.30 in East 2.7 mph 3.5 mph 60 % 0.00 in
07:16 35.0 °F 22.9 °F 30.30 in East 4.0 mph 5.8 mph 61 % 0.00 in
07:19 35.0 °F 22.5 °F 30.30 in East 3.7 mph 6.9 mph 60 % 0.00 in
07:24 35.0 °F 22.9 °F 30.29 in East 3.0 mph 5.8 mph 61 % 0.00 in
07:25 35.0 °F 22.9 °F 30.30 in East 3.4 mph 5.8 mph 61 % 0.00 in
07:30 35.1 °F 23.0 °F 30.29 in East 3.3 mph 5.8 mph 61 % 0.00 in
07:33 35.1 °F 23.0 °F 30.29 in ESE 5.3 mph 6.9 mph 61 % 0.00 in
07:38 35.1 °F 23.0 °F 30.29 in East 4.0 mph 8.1 mph 61 % 0.00 in
07:43 35.2 °F 23.1 °F 30.29 in East 2.6 mph 5.8 mph 61 % 0.00 in
07:46 35.2 °F 23.1 °F 30.28 in East 3.2 mph 6.9 mph 61 % 0.00 in
07:51 35.2 °F 22.7 °F 30.29 in SE 2.6 mph 5.8 mph 60 % 0.00 in
07:54 35.2 °F 22.7 °F 30.29 in East 3.6 mph 6.0 mph 60 % 0.00 in
07:56 35.2 °F 22.7 °F 30.28 in ESE 2.3 mph 5.8 mph 60 % 0.00 in
08:00 35.2 °F 23.1 °F 30.29 in East 2.5 mph 5.0 mph 61 % 0.00 in
08:07 35.3 °F 23.2 °F 30.29 in East 4.2 mph 5.0 mph 61 % 0.00 in
08:12 35.3 °F 23.2 °F 30.29 in East 4.0 mph 5.8 mph 61 % 0.00 in
08:14 35.3 °F 23.2 °F 30.29 in East 4.6 mph 6.0 mph 61 % 0.00 in
08:24 35.5 °F 24.1 °F 30.29 in East 3.6 mph 5.8 mph 63 % 0.00 in
08:26 35.5 °F 24.1 °F 30.29 in East 2.5 mph 4.6 mph 63 % 0.00 in
08:31 35.5 °F 24.1 °F 30.29 in East 3.1 mph 5.8 mph 63 % 0.00 in
08:35 35.6 °F 24.2 °F 30.29 in ESE 4.4 mph 8.1 mph 63 % 0.00 in
08:40 35.7 °F 24.3 °F 30.29 in East 3.3 mph 5.8 mph 63 % 0.00 in
08:44 35.8 °F 24.4 °F 30.29 in East 4.1 mph 5.8 mph 63 % 0.00 in
08:48 35.9 °F 24.9 °F 30.29 in East 3.0 mph 5.8 mph 64 % 0.00 in
08:53 36.0 °F 25.0 °F 30.28 in East 4.7 mph 6.0 mph 64 % 0.00 in
08:58 36.0 °F 25.0 °F 30.28 in East 5.1 mph 6.9 mph 64 % 0.00 in
09:07 36.2 °F 25.6 °F 30.28 in SE 2.5 mph 5.8 mph 65 % 0.00 in
09:13 36.3 °F 25.3 °F 30.29 in East 4.3 mph 6.0 mph 64 % 0.00 in
09:18 36.4 °F 25.7 °F 30.29 in East 1.9 mph 4.6 mph 65 % 0.00 in
09:19 36.4 °F 25.7 °F 30.29 in East 3.7 mph 5.0 mph 65 % 0.00 in
09:24 36.5 °F 25.8 °F 30.29 in East 2.3 mph 5.8 mph 65 % 0.00 in
09:25 36.5 °F 25.8 °F 30.29 in East 2.1 mph 5.0 mph 65 % 0.00 in
09:27 36.6 °F 26.3 °F 30.29 in East 2.3 mph 5.8 mph 66 % 0.00 in
09:33 36.8 °F 26.5 °F 30.29 in East 2.9 mph 6.9 mph 66 % 0.00 in
09:43 36.9 °F 26.6 °F 30.29 in East 1.2 mph 3.5 mph 66 % 0.00 in
09:48 37.0 °F 26.7 °F 30.29 in East 1.7 mph 3.5 mph 66 % 0.00 in
09:53 37.1 °F 27.2 °F 30.29 in East 3.7 mph 5.0 mph 67 % 0.00 in
09:58 37.2 °F 27.2 °F 30.29 in ESE 1.6 mph 3.5 mph 67 % 0.00 in
10:05 37.4 °F 27.1 °F 30.29 in East 1.8 mph 5.8 mph 66 % 0.00 in
10:06 37.4 °F 27.1 °F 30.28 in East 2.0 mph 6.0 mph 66 % 0.00 in
10:11 37.5 °F 27.5 °F 30.28 in ESE 1.2 mph 4.6 mph 67 % 0.00 in
10:16 37.6 °F 27.3 °F 30.28 in ESE 1.3 mph 3.0 mph 66 % 0.00 in
10:18 37.6 °F 27.6 °F 30.28 in East 1.2 mph 3.5 mph 67 % 0.00 in
10:20 37.7 °F 27.7 °F 30.28 in East 1.6 mph 4.6 mph 67 % 0.00 in
10:25 37.8 °F 27.5 °F 30.28 in East 1.6 mph 3.5 mph 66 % 0.00 in
10:27 37.8 °F 27.8 °F 30.28 in ESE 1.8 mph 4.0 mph 67 % 0.00 in
10:32 37.9 °F 27.9 °F 30.27 in East 0.8 mph 3.5 mph 67 % 0.00 in
10:42 38.0 °F 28.0 °F 30.26 in East 1.0 mph 2.3 mph 67 % 0.00 in
10:47 38.2 °F 28.6 °F 30.25 in ENE 1.0 mph 3.5 mph 68 % 0.00 in
10:50 38.2 °F 28.2 °F 30.26 in ENE 2.1 mph 3.5 mph 67 % 0.00 in
10:53 38.3 °F 28.3 °F 30.26 in East 2.1 mph 3.5 mph 67 % 0.00 in
11:03 38.4 °F 28.8 °F 30.25 in East 1.5 mph 3.5 mph 68 % 0.00 in
11:06 38.5 °F 28.9 °F 30.25 in East 0.6 mph 2.0 mph 68 % 0.00 in
11:11 38.6 °F 28.9 °F 30.24 in East 1.5 mph 3.5 mph 68 % 0.00 in
11:15 38.7 °F 29.0 °F 30.24 in Calm     68 % 0.00 in
11:20 38.8 °F 29.1 °F 30.24 in East 0.8 mph 2.3 mph 68 % 0.00 in
11:24 38.9 °F 29.2 °F 30.24 in Calm   1.2 mph 68 % 0.00 in
11:29 38.9 °F 29.6 °F 30.24 in East 0.1 mph 1.2 mph 69 % 0.00 in
11:41 39.2 °F 29.5 °F 30.24 in Calm   1.2 mph 68 % 0.00 in
11:46 39.3 °F 30.0 °F 30.24 in NNE 0.8 mph 2.3 mph 69 % 0.00 in
11:47 39.4 °F 30.1 °F 30.23 in NE 1.4 mph 2.3 mph 69 % 0.00 in
11:52 39.6 °F 30.3 °F 30.23 in ENE 1.5 mph 3.5 mph 69 % 0.00 in
11:57 39.7 °F 30.4 °F 30.22 in Calm   2.3 mph 69 % 0.00 in
11:58 39.8 °F 30.5 °F 30.22 in Calm   2.3 mph 69 % 0.00 in
12:00 39.8 °F 30.5 °F 30.22 in East 0.9 mph 2.3 mph 69 % 0.00 in
12:05 40.0 °F 30.6 °F 30.22 in East 1.5 mph 3.5 mph 69 % 0.00 in
12:10 40.2 °F 30.8 °F 30.22 in East 1.4 mph 2.3 mph 69 % 0.00 in
12:11 40.2 °F 30.8 °F 30.22 in East 1.6 mph 3.0 mph 69 % 0.00 in
12:12 40.3 °F 30.9 °F 30.22 in East 1.8 mph 3.5 mph 69 % 0.00 in
12:16 40.4 °F 31.0 °F 30.21 in East 1.9 mph 4.6 mph 69 % 0.00 in
12:21 40.6 °F 31.2 °F 30.21 in East 1.3 mph 3.5 mph 69 % 0.00 in
12:24 40.7 °F 31.3 °F 30.21 in East 0.4 mph 2.3 mph 69 % 0.00 in
12:31 40.9 °F 31.5 °F 30.20 in East 0.1 mph 2.3 mph 69 % 0.00 in
12:36 41.0 °F 32.0 °F 30.19 in East 1.0 mph 2.3 mph 70 % 0.00 in
12:41 41.2 °F 32.2 °F 30.18 in East 0.6 mph 2.3 mph 70 % 0.00 in
12:45 41.3 °F 32.2 °F 30.18 in East 0.5 mph 2.3 mph 70 % 0.00 in
12:49 41.5 °F 32.4 °F 30.17 in East 0.7 mph 2.3 mph 70 % 0.00 in
12:52 41.8 °F 33.1 °F 30.17 in East 1.3 mph 3.5 mph 71 % 0.00 in
12:55 42.0 °F 33.3 °F 30.17 in East 1.1 mph 3.0 mph 71 % 0.00 in
13:02 42.5 °F 33.8 °F 30.17 in East 0.9 mph 3.5 mph 71 % 0.00 in
13:07 42.8 °F 34.0 °F 30.16 in East 0.2 mph 2.3 mph 71 % 0.00 in
13:09 42.8 °F 34.0 °F 30.16 in East 0.3 mph 1.2 mph 71 % 0.00 in
13:23 43.6 °F 35.9 °F 30.15 in Calm   1.2 mph 74 % 0.00 in
13:24 43.6 °F 35.9 °F 30.15 in SSE 0.6 mph 2.3 mph 74 % 0.00 in
13:26 43.7 °F 36.3 °F 30.15 in SE 0.9 mph 2.3 mph 75 % 0.00 in
13:31 44.0 °F 36.6 °F 30.15 in ESE 0.1 mph   75 % 0.00 in
13:36 44.2 °F 37.1 °F 30.15 in ESE 0.1 mph 2.3 mph 76 % 0.00 in
13:41 44.5 °F 37.4 °F 30.15 in Calm   1.2 mph 76 % 0.00 in
13:44 44.5 °F 37.7 °F 30.15 in Calm     77 % 0.00 in
13:49 44.9 °F 38.5 °F 30.16 in SSE 4.0 mph 8.0 mph 78 % 0.00 in
13:51 45.0 °F 38.9 °F 30.15 in SSE 1.4 mph 3.5 mph 79 % 0.00 in
14:00 45.7 °F 39.6 °F 30.15 in South 3.7 mph 6.9 mph 79 % 0.00 in
14:05 46.1 °F 39.9 °F 30.15 in SSE 1.0 mph 3.5 mph 79 % 0.00 in
14:07 46.3 °F 40.1 °F 30.15 in South 2.6 mph 5.8 mph 79 % 0.00 in
14:10 46.4 °F 40.2 °F 30.15 in ESE 4.5 mph 8.1 mph 79 % 0.00 in
14:15 46.7 °F 40.5 °F 30.15 in SE 4.1 mph 7.0 mph 79 % 0.00 in
14:17 46.8 °F 40.6 °F 30.15 in South 4.2 mph 5.8 mph 79 % 0.00 in
14:19 46.8 °F 40.6 °F 30.15 in ESE 2.6 mph 5.0 mph 79 % 0.00 in
14:24 47.0 °F 40.8 °F 30.15 in SSE 5.3 mph 8.0 mph 79 % 0.00 in
14:26 47.0 °F 40.8 °F 30.15 in SSE 2.0 mph 10.4 mph 79 % 0.00 in
14:31 47.1 °F 40.6 °F 30.15 in SSE 3.0 mph 7.0 mph 78 % 0.00 in
14:35 47.2 °F 41.0 °F 30.15 in SSE 5.0 mph 6.9 mph 79 % 0.00 in
14:40 47.3 °F 41.1 °F 30.15 in ESE 3.2 mph 6.9 mph 79 % 0.00 in
14:42 47.4 °F 41.2 °F 30.15 in ESE 3.6 mph 6.9 mph 79 % 0.00 in
14:45 47.4 °F 41.2 °F 30.15 in SSE 2.2 mph 5.8 mph 79 % 0.00 in
14:50 47.4 °F 41.2 °F 30.15 in SE 1.6 mph 2.3 mph 79 % 0.00 in
14:54 47.4 °F 41.2 °F 30.15 in SE 2.2 mph 4.6 mph 79 % 0.00 in
14:59 47.5 °F 41.3 °F 30.15 in ESE 3.4 mph 5.0 mph 79 % 0.00 in
15:01 47.5 °F 41.3 °F 30.15 in SSE 1.7 mph 4.6 mph 79 % 0.00 in
15:09 47.5 °F 41.6 °F 30.14 in SE 2.1 mph 4.6 mph 80 % 0.00 in
15:14 47.5 °F 41.6 °F 30.14 in SE 4.3 mph 6.9 mph 80 % 0.00 in
15:16 47.5 °F 41.6 °F 30.14 in ESE 2.4 mph 4.6 mph 80 % 0.00 in
15:19 47.5 °F 41.6 °F 30.14 in SSE 0.5 mph 4.6 mph 80 % 0.00 in
15:24 47.5 °F 42.0 °F 30.14 in SSE 0.8 mph 3.5 mph 81 % 0.00 in
15:28 47.5 °F 42.0 °F 30.14 in South 3.9 mph 5.8 mph 81 % 0.00 in
15:33 47.6 °F 42.1 °F 30.14 in SSE 3.1 mph 5.0 mph 81 % 0.00 in
15:40 47.6 °F 42.1 °F 30.13 in SSE 3.0 mph 4.0 mph 81 % 0.00 in
15:45 47.6 °F 42.1 °F 30.13 in SSE 1.8 mph 3.5 mph 81 % 0.00 in
15:51 47.5 °F 42.3 °F 30.13 in SSE 0.3 mph 2.3 mph 82 % 0.00 in
15:57 47.5 °F 42.3 °F 30.13 in SSE 1.1 mph 4.0 mph 82 % 0.00 in
16:02 47.5 °F 42.3 °F 30.12 in SSE 1.2 mph 4.6 mph 82 % 0.00 in
16:06 47.6 °F 42.4 °F 30.13 in SSE 3.9 mph 5.8 mph 82 % 0.00 in
16:11 47.6 °F 42.7 °F 30.12 in SE 1.5 mph 4.6 mph 83 % 0.00 in
16:14 47.5 °F 42.6 °F 30.12 in SE 4.4 mph 8.1 mph 83 % 0.00 in
16:19 47.5 °F 42.6 °F 30.13 in Calm     83 % 0.00 in
16:20 47.5 °F 42.6 °F 30.13 in Calm     83 % 0.00 in
16:25 47.5 °F 42.6 °F 30.13 in SE 0.8 mph 1.2 mph 83 % 0.00 in
16:26 47.5 °F 42.6 °F 30.13 in SSE 1.4 mph 5.0 mph 83 % 0.00 in
16:27 47.5 °F 42.6 °F 30.13 in South 0.2 mph 3.5 mph 83 % 0.00 in
16:32 47.5 °F 42.6 °F 30.14 in SSE 2.0 mph 4.6 mph 83 % 0.00 in
16:34 47.5 °F 42.6 °F 30.13 in SSE 2.9 mph 3.5 mph 83 % 0.00 in
16:38 47.5 °F 42.6 °F 30.13 in SE 2.1 mph 3.5 mph 83 % 0.00 in
16:42 47.5 °F 42.6 °F 30.14 in SE 0.2 mph 1.2 mph 83 % 0.00 in
16:48 47.5 °F 42.9 °F 30.14 in ESE 1.4 mph 3.0 mph 84 % 0.00 in
16:49 47.5 °F 42.9 °F 30.13 in ESE 0.2 mph 3.5 mph 84 % 0.00 in
16:54 47.4 °F 42.5 °F 30.13 in Calm     83 % 0.00 in
16:59 47.4 °F 42.5 °F 30.14 in Calm     83 % 0.00 in
17:00 47.4 °F 42.5 °F 30.14 in Calm   1.0 mph 83 % 0.00 in
17:06 47.5 °F 42.9 °F 30.14 in Calm   1.2 mph 84 % 0.00 in
17:07 47.5 °F 42.9 °F 30.14 in Calm     84 % 0.00 in
17:11 47.5 °F 42.9 °F 30.14 in WNW 0.9 mph 3.0 mph 84 % 0.00 in
17:16 47.5 °F 43.2 °F 30.14 in WNW 0.3 mph 2.3 mph 85 % 0.00 in
17:19 47.5 °F 43.2 °F 30.14 in Calm     85 % 0.00 in
17:24 47.5 °F 43.2 °F 30.13 in SSE 0.3 mph 1.2 mph 85 % 0.00 in
17:29 47.5 °F 43.2 °F 30.13 in SSE 1.8 mph 3.5 mph 85 % 0.00 in
17:34 47.4 °F 43.1 °F 30.13 in SE 0.5 mph 3.5 mph 85 % 0.00 in
17:38 47.4 °F 43.1 °F 30.13 in SE 0.9 mph 3.0 mph 85 % 0.00 in
17:46 47.3 °F 43.0 °F 30.13 in Calm     85 % 0.00 in
17:51 47.3 °F 43.0 °F 30.14 in SE 0.2 mph 1.2 mph 85 % 0.00 in
17:56 47.3 °F 43.3 °F 30.15 in SE 0.4 mph 2.3 mph 86 % 0.00 in
18:03 47.2 °F 43.2 °F 30.15 in NNE 5.0 mph 6.0 mph 86 % 0.00 in
18:04 47.2 °F 43.2 °F 30.15 in NNE 4.7 mph 5.8 mph 86 % 0.00 in
18:09 47.0 °F 43.0 °F 30.15 in NNE 3.1 mph 6.9 mph 86 % 0.00 in
18:11 47.0 °F 43.0 °F 30.15 in NNE 2.0 mph 7.0 mph 86 % 0.00 in
18:16 46.4 °F 42.1 °F 30.14 in ENE 4.2 mph 9.2 mph 85 % 0.00 in
18:20 45.6 °F 41.4 °F 30.14 in ENE 5.2 mph 9.2 mph 85 % 0.00 in
18:25 44.5 °F 40.6 °F 30.14 in ENE 8.3 mph 12.0 mph 86 % 0.00 in
18:26 44.1 °F 40.2 °F 30.14 in NE 8.9 mph 11.5 mph 86 % 0.00 in
18:34 42.7 °F 39.4 °F 30.15 in ENE 7.4 mph 10.4 mph 88 % 0.00 in
18:39 42.3 °F 39.3 °F 30.14 in East 4.7 mph 9.2 mph 89 % 0.00 in
18:44 42.0 °F 39.3 °F 30.14 in East 5.0 mph 10.4 mph 90 % 0.00 in
18:47 41.9 °F 39.2 °F 30.14 in ENE 4.7 mph 6.0 mph 90 % 0.00 in
18:52 41.7 °F 39.3 °F 30.14 in ENE 3.0 mph 5.0 mph 91 % 0.00 in
18:53 41.7 °F 39.3 °F 30.14 in East 4.2 mph 5.8 mph 91 % 0.00 in
18:58 41.6 °F 39.2 °F 30.14 in ENE 3.4 mph 8.1 mph 91 % 0.00 in
19:01 41.5 °F 39.1 °F 30.14 in ENE 4.3 mph 6.9 mph 91 % 0.00 in
19:08 41.3 °F 39.2 °F 30.15 in ENE 4.7 mph 8.1 mph 92 % 0.00 in
19:13 41.0 °F 38.9 °F 30.15 in NNE 5.6 mph 9.2 mph 92 % 0.00 in
19:18 40.6 °F 38.5 °F 30.15 in NE 5.2 mph 7.0 mph 92 % 0.00 in
19:23 40.2 °F 38.1 °F 30.15 in ENE 6.9 mph 9.2 mph 92 % 0.00 in
19:26 40.0 °F 37.9 °F 30.15 in ENE 7.5 mph 10.4 mph 92 % 0.00 in
19:31 39.6 °F 37.5 °F 30.15 in ENE 4.0 mph 6.9 mph 92 % 0.00 in
19:35 39.5 °F 37.4 °F 30.15 in ENE 4.3 mph 5.0 mph 92 % 0.00 in
19:37 39.4 °F 37.3 °F 30.15 in ENE 4.7 mph 9.2 mph 92 % 0.00 in
19:42 39.2 °F 37.1 °F 30.15 in ENE 6.7 mph 10.4 mph 92 % 0.00 in
19:47 39.0 °F 36.9 °F 30.15 in ENE 8.6 mph 11.0 mph 92 % 0.00 in
19:48 39.0 °F 36.9 °F 30.15 in NE 7.9 mph 11.5 mph 92 % 0.00 in
19:53 38.8 °F 36.7 °F 30.15 in ENE 7.5 mph 10.4 mph 92 % 0.00 in
19:54 38.9 °F 36.8 °F 30.15 in ENE 7.3 mph 10.4 mph 92 % 0.00 in
19:58 38.7 °F 36.6 °F 30.15 in NE 7.0 mph 9.2 mph 92 % 0.00 in
20:01 38.6 °F 36.5 °F 30.15 in ENE 7.0 mph 10.4 mph 92 % 0.00 in
20:04 38.5 °F 36.4 °F 30.15 in ENE 7.5 mph 10.4 mph 92 % 0.00 in
20:08 38.4 °F 36.3 °F 30.15 in ENE 7.2 mph 11.5 mph 92 % 0.00 in
20:13 38.1 °F 36.0 °F 30.16 in NE 5.2 mph 9.2 mph 92 % 0.00 in
20:20 38.0 °F 35.9 °F 30.15 in East 6.1 mph 9.2 mph 92 % 0.00 in
20:24 37.8 °F 35.7 °F 30.15 in ENE 6.6 mph 10.4 mph 92 % 0.00 in
20:29 37.7 °F 35.6 °F 30.15 in East 6.9 mph 9.2 mph 92 % 0.00 in
20:30 37.6 °F 35.5 °F 30.15 in ENE 6.3 mph 9.2 mph 92 % 0.00 in
20:35 37.5 °F 35.7 °F 30.15 in ENE 5.4 mph 8.1 mph 93 % 0.00 in
20:40 37.4 °F 35.6 °F 30.15 in ENE 5.8 mph 9.2 mph 93 % 0.00 in
20:45 37.2 °F 35.4 °F 30.15 in ENE 5.5 mph 11.5 mph 93 % 0.00 in
20:47 37.2 °F 35.4 °F 30.15 in NE 6.3 mph 8.1 mph 93 % 0.00 in
20:52 37.1 °F 35.3 °F 30.15 in ENE 6.8 mph 10.4 mph 93 % 0.00 in
20:55 37.0 °F 35.2 °F 30.15 in ENE 5.6 mph 9.0 mph 93 % 0.00 in
21:00 37.0 °F 35.2 °F 30.15 in ENE 4.7 mph 7.0 mph 93 % 0.00 in
21:07 36.8 °F 35.0 °F 30.16 in ENE 8.4 mph 11.5 mph 93 % 0.00 in
21:09 36.8 °F 35.0 °F 30.16 in ENE 5.4 mph 8.1 mph 93 % 0.00 in
21:12 36.8 °F 35.0 °F 30.16 in NE 5.5 mph 9.2 mph 93 % 0.00 in
21:18 36.7 °F 34.9 °F 30.16 in ENE 5.4 mph 9.0 mph 93 % 0.00 in
21:21 36.6 °F 34.8 °F 30.17 in ENE 6.7 mph 9.2 mph 93 % 0.00 in
21:27 36.4 °F 34.6 °F 30.16 in ENE 4.6 mph 8.1 mph 93 % 0.00 in
21:28 36.4 °F 34.6 °F 30.16 in ENE 5.5 mph 9.2 mph 93 % 0.00 in
21:33 36.3 °F 34.5 °F 30.16 in ENE 6.4 mph 9.2 mph 93 % 0.00 in
21:35 36.2 °F 34.4 °F 30.16 in ENE 7.1 mph 10.4 mph 93 % 0.00 in
21:40 36.2 °F 34.4 °F 30.16 in East 5.2 mph 6.9 mph 93 % 0.00 in
21:42 36.2 °F 34.4 °F 30.16 in East 4.6 mph 8.1 mph 93 % 0.00 in
21:43 36.2 °F 34.4 °F 30.16 in NE 5.5 mph 8.0 mph 93 % 0.00 in
21:48 36.1 °F 34.3 °F 30.16 in ENE 3.4 mph 8.1 mph 93 % 0.00 in
21:53 36.1 °F 34.3 °F 30.16 in NE 4.5 mph 6.9 mph 93 % 0.00 in
21:57 36.0 °F 34.2 °F 30.16 in ENE 5.4 mph 8.1 mph 93 % 0.00 in
22:02 36.0 °F 34.2 °F 30.16 in ENE 4.2 mph 5.8 mph 93 % 0.00 in
22:05 36.0 °F 34.2 °F 30.15 in ENE 4.6 mph 7.0 mph 93 % 0.00 in
22:10 35.9 °F 34.1 °F 30.15 in ENE 3.2 mph 9.2 mph 93 % 0.00 in
22:15 35.9 °F 34.1 °F 30.15 in ENE 3.4 mph 8.1 mph 93 % 0.00 in
22:19 35.9 °F 34.1 °F 30.15 in ENE 3.9 mph 6.9 mph 93 % 0.00 in
22:21 35.9 °F 34.1 °F 30.15 in ENE 3.4 mph 6.9 mph 93 % 0.00 in
22:26 35.8 °F 34.0 °F 30.16 in ENE 4.8 mph 6.9 mph 93 % 0.00 in
22:31 35.8 °F 34.0 °F 30.16 in NE 4.6 mph 9.2 mph 93 % 0.00 in
22:32 35.8 °F 34.0 °F 30.16 in NE 4.7 mph 9.2 mph 93 % 0.00 in
22:33 35.8 °F 34.0 °F 30.16 in ENE 7.2 mph 9.2 mph 93 % 0.00 in
22:39 35.8 °F 34.0 °F 30.16 in ENE 5.6 mph 9.2 mph 93 % 0.00 in
22:41 35.8 °F 34.0 °F 30.16 in ENE 5.0 mph 9.0 mph 93 % 0.00 in
22:46 35.9 °F 34.3 °F 30.16 in ENE 5.0 mph 10.0 mph 94 % 0.00 in
22:51 35.9 °F 34.3 °F 30.16 in ENE 5.0 mph 9.0 mph 94 % 0.00 in
22:52 35.9 °F 34.3 °F 30.16 in NE 4.9 mph 8.1 mph 94 % 0.00 in
22:57 35.9 °F 34.3 °F 30.16 in ENE 3.9 mph 6.9 mph 94 % 0.00 in
23:01 35.9 °F 34.3 °F 30.17 in ENE 3.5 mph 9.2 mph 94 % 0.00 in
23:06 35.8 °F 34.2 °F 30.16 in ENE 3.6 mph 6.9 mph 94 % 0.00 in
23:09 35.9 °F 34.3 °F 30.16 in ENE 3.3 mph 4.6 mph 94 % 0.00 in
23:12 35.9 °F 34.3 °F 30.16 in ENE 3.3 mph 4.6 mph 94 % 0.00 in
23:14 35.9 °F 34.3 °F 30.15 in ENE 3.3 mph 4.6 mph 94 % 0.00 in
23:19 35.9 °F 34.3 °F 30.15 in ENE 4.2 mph 9.2 mph 94 % 0.00 in
23:20 35.9 °F 34.3 °F 30.15 in ENE 3.9 mph 6.9 mph 94 % 0.00 in
23:25 35.8 °F 34.2 °F 30.14 in East 3.7 mph 6.9 mph 94 % 0.00 in
23:31 35.8 °F 34.2 °F 30.15 in ENE 2.0 mph 7.0 mph 94 % 0.00 in
23:33 35.8 °F 34.2 °F 30.15 in East 3.3 mph 5.0 mph 94 % 0.00 in
23:36 35.8 °F 34.2 °F 30.14 in ENE 4.9 mph 7.0 mph 94 % 0.00 in
23:41 35.8 °F 34.2 °F 30.14 in ENE 5.0 mph 8.0 mph 94 % 0.00 in
23:46 35.8 °F 34.2 °F 30.14 in ENE 3.0 mph 7.0 mph 94 % 0.00 in
23:47 35.8 °F 34.2 °F 30.14 in ENE 4.0 mph 5.0 mph 94 % 0.00 in
23:51 35.8 °F 34.2 °F 30.14 in ENE 3.9 mph 8.0 mph 94 % 0.00 in
23:52 35.8 °F 34.2 °F 30.14 in East 4.4 mph 8.1 mph 94 % 0.00 in
23:57 35.8 °F 34.2 °F 30.14 in ENE 4.8 mph 7.0 mph 94 % 0.00 in
Crab Meadow Weather
Compliments of Weather Underground - 3.5 mb

Script developed by  Jim McMurry - jmcmurry@mwt.net Adapted for the template by  Wim van der Kuil - Leuven-Template.eu

Astronomy: Pluto is not a planet, because it does not have a fixed orbit and it's orbit comes in between the orbit of another planet (Neptune).